Regional Weather Roundup
Issued by NWS Jackson, KY

Home | Current Version | Previous Version | Text Only | Print | Product List | Glossary Off
Versions: 1 2 3 4 5 6 7 8 9 10 11 12 13 14 15 16 17 18 19 20 21 22 23 24 25 26 27 28 29 30 31 32 33 34 35 36 37 38 39 40 41 42 43 44 45 46 47 48 49 50

000
ASUS43 KJKL 222110
RWRJKL

EAST KENTUCKY HOURLY WEATHER ROUNDUP
NATIONAL WEATHER SERVICE JACKSON KY
400 PM EST SUN JAN 22 2017

NOTE: "FAIR" INDICATES FEW OR NO CLOUDS BELOW 12,000 FEET WITH
NO SIGNIFICANT WEATHER AND/OR OBSTRUCTIONS TO VISIBILITY.

* THESE REPORTS ARE NOT UNDER NWS QUALITY CONTROL AND MAY NOT
  REPORT WEATHER SUCH AS PRECIPITATION AND FOG.

KYZ079-080-083-085-087-088-110-112-115-119-120-222200
...EASTERN KENTUCKY...

CITY           SKY/WX    TMP DP  RH WIND       PRES   REMARKS
JACKSON        CLOUDY    59  52  77 CALM      29.40R
LONDON         CLOUDY    58  50  75 SW3       29.38R
SOMERSET*      CLOUDY    54  54 100 E6        29.38R
MONTICELLO*    PTSUNNY   59  52  77 VRB3      29.39R
WILLIAMSBURG*  CLOUDY    57  55  94 CALM      29.38R
MIDDLESBORO*   CLOUDY    60  55  82 SE3       29.40R
HARLAN APT*    CLOUDY    59  50  72 CALM      29.40S
PIKE CO APT*   CLOUDY    55  55  99 N5        29.42R
BIG SANDY APT* CLOUDY    58  53  83 E6        29.43R
MOREHEAD APT*  CLOUDY    61  50  67 E8        29.41F
ASHLAND*       CLOUDY    61  52  72 E5        29.41F
$$

KYZ035-036-041-042-044-050-067-078-099-222200
...CENTRAL KENTUCKY...

CITY           SKY/WX    TMP DP  RH WIND       PRES   REMARKS
MT STERLING*   PTSUNNY   57  52  82 E7        29.41R
FLEMING/MASON* CLOUDY    58  50  74 NE13      29.41F
DANVILLE*      PTSUNNY   57  52  82 N9        29.38S
LEXINGTON      CLOUDY    58  51  78 NE9       29.39F
FRANKFORT      CLOUDY    59  50  72 N9        29.38F
LOUISVILLE     LGT RAIN  62  51  67 N9        29.39F
LEBANON*         N/A     57  54  88 N9        29.36F
GLASGOW*       SUNNY     62  52  71 NE8G16    29.31F
BOWLING GREEN  CLOUDY    64  53  67 N8        29.30F
$$

KYZ091>093-OHZ055-061-077-WVZ005-015-034-035-042-222200
...SOUTHERN OHIO/WEST VIRGINIA...

CITY           SKY/WX    TMP DP  RH WIND       PRES   REMARKS
COVINGTON      CLOUDY    61  51  70 NE10      29.44S
COLUMBUS       CLOUDY    63  47  55 NE12      29.49R
DAYTON         CLOUDY    61  48  62 NE10      29.50R
WILMINGTON     CLOUDY    59  50  72 NE9       29.45F
HUNTINGTON     CLOUDY    60  50  69 NE8       29.42F
CHARLESTON     PTSUNNY   60  49  66 E12       29.44S
BECKLEY        CLOUDY    52  47  83 SE15G24   29.49S
BLUEFIELD      CLOUDY    52  46  80 E9        29.50S
LOGAN CO APT*  CLOUDY    57  54  88 CALM      29.43S
$$

VAZ002-007-008-TNZ017-027-036-066-071-222200
...SOUTHWEST VIRGINIA/EAST TENNESSEE...

CITY           SKY/WX    TMP DP  RH WIND       PRES   REMARKS
WISE*          CLOUDY    59  46  63 S6        29.45S
JONESVILLE*    CLOUDY    59  54  82 CALM      29.43R
ABINGDON*      CLOUDY    63  52  66 E9        29.43F
BRISTOL        CLOUDY    65  48  54 S9        29.41S
MORRISTOWN*    CLOUDY    63  54  72 NE6       29.37F
SEVIERVILLE*   MOCLDY    63  52  67 CALM      29.34F
KNOXVILLE      CLOUDY    63  55  75 N8        29.33F
LAFOLLETTE*    CLOUDY    59  55  88 CALM      29.40S
OAK RIDGE      CLOUDY    65  53  65 CALM      29.35F
CROSSVILLE     CLOUDY    59  50  72 VRB7      29.34F
NASHVILLE      CLOUDY    64  51  62 E9        29.30R
$$

...KEY TO REMARKS...
VSB - VISIBILITY IN MILES
WCI - WIND CHILL INDEX
HX  - HEAT INDEX

$$



USA.gov is the U.S. government's official web portal to all federal, state and local government web resources and services.